DW5822 Weather Reports


time (UTC)temp
C
wind
direction
speed
KPH
gust
KPH
rain 1hr
cm
rain 24hr
cm
rain mn
cm
humidity
%
barometer
mb
20190421200218 13 346 0.0 0.0 0.00 0.05 0.05 95 1022.9
20190421195715 13 346 0.0 0.0 0.00 0.05 0.05 95 1022.9
20190421195215 13 346 0.0 0.0 0.00 0.05 0.05 95 1022.9
20190421194717 13 346 0.0 0.0 0.00 0.05 0.05 96 1022.9
20190421194215 13 346 0.0 0.0 0.00 0.05 0.05 96 1022.9
20190421193715 13 346 0.0 0.0 0.00 0.05 0.05 96 1022.9
20190421193217 13 346 0.0 0.0 0.00 0.05 0.05 96 1022.9
20190421192716 13 346 0.0 0.0 0.00 0.05 0.05 96 1022.9
20190421192216 13 346 0.0 0.0 0.00 0.05 0.05 96 1022.8
20190421191718 13 346 0.0 0.0 0.00 0.05 0.05 96 1022.8
20190421191215 13 346 0.0 0.0 0.00 0.05 0.05 97 1022.8
20190421190715 13 303 0.0 0.0 0.00 0.05 0.05 97 1022.8
20190421190217 13 303 0.0 0.0 0.00 0.05 0.05 97 1022.8
20190421185715 13 303 0.0 0.0 0.00 0.05 0.05 97 1022.8
20190421185214 13 303 0.0 0.0 0.00 0.05 0.05 97 1022.8
20190421184718 13 303 0.0 0.0 0.00 0.05 0.05 97 1022.8
20190421184214 13 303 0.0 0.0 0.00 0.05 0.05 97 1022.8
20190421183715 13 315 0.0 0.0 0.00 0.05 0.05 97 1022.9
20190421183218 13 319 0.0 0.0 0.00 0.05 0.05 97 1022.8
20190421182715 13 319 0.0 0.0 0.00 0.05 0.05 97 1022.8
20190421182215 13 319 0.0 0.0 0.00 0.05 0.05 98 1022.8
20190421181718 13 19 0.0 0.0 0.00 0.05 0.05 97 1022.7
20190421181215 13 19 0.0 0.0 0.00 0.05 0.05 97 1022.7
20190421180715 13 19 0.0 0.0 0.00 0.05 0.05 97 1022.6
20190421180218 13 19 0.0 0.0 0.00 0.05 0.05 97 1022.6
20190421175715 13 19 0.0 0.0 0.00 0.05 0.05 97 1022.5
20190421175215 13 20 0.0 1.6 0.00 0.05 0.05 97 1022.5
20190421174717 13 18 0.0 0.0 0.00 0.05 0.05 97 1022.5
20190421174217 13 18 0.0 1.6 0.00 0.05 0.05 97 1022.4
20190421173716 13 39 1.6 3.2 0.00 0.05 0.05 97 1022.5
20190421173215 13 38 1.6 3.2 0.00 0.05 0.05 97 1022.5
20190421172722 13 36 0.0 3.2 0.00 0.05 0.05 97 1022.5
20190421172215 13 33 1.6 1.6 0.00 0.05 0.05 97 1022.6
20190421171715 13 29 1.6 1.6 0.00 0.05 0.05 97 1022.6
20190421171217 13 33 1.6 3.2 0.00 0.05 0.05 97 1022.7
20190421170715 13 29 1.6 3.2 0.00 0.05 0.05 97 1022.8
20190421170215 13 35 1.6 3.2 0.00 0.05 0.05 97 1022.8
20190421165717 13 50 0.0 0.0 0.00 0.05 0.05 97 1022.9
20190421165214 13 340 0.0 0.0 0.00 0.05 0.05 97 1023.0
20190421164715 13 4 0.0 3.2 0.00 0.05 0.05 97 1023.0
20190421164218 13 352 0.0 1.6 0.00 0.05 0.05 97 1023.0
20190421163715 13 32 1.6 3.2 0.00 0.05 0.05 97 1023.0
20190421163214 13 40 1.6 3.2 0.00 0.05 0.05 97 1023.1
20190421162718 13 29 0.0 1.6 0.00 0.05 0.05 97 1023.2
20190421162222 13 36 1.6 3.2 0.00 0.05 0.05 97 1023.2
20190421161715 13 36 1.6 3.2 0.00 0.05 0.05 97 1023.2
20190421161215 13 34 0.0 4.8 0.00 0.05 0.05 97 1023.3
20190421160715 13 32 1.6 3.2 0.00 0.05 0.05 97 1023.3
20190421160215 13 36 0.0 1.6 0.00 0.05 0.05 97 1023.4
20190421155717 13 35 0.0 1.6 0.03 0.05 0.05 97 1023.3
20190421155215 13 44 0.0 0.0 0.03 0.05 0.05 97 1023.3
20190421154714 13 44 0.0 1.6 0.03 0.05 0.05 97 1023.4
20190421154217 13 42 0.0 3.2 0.03 0.05 0.05 96 1023.4
20190421153715 13 346 0.0 0.0 0.03 0.05 0.05 96 1023.4
20190421153214 13 340 0.0 1.6 0.03 0.05 0.05 97 1023.4
20190421152717 13 342 0.0 3.2 0.03 0.05 0.05 97 1023.4
20190421152215 13 343 1.6 3.2 0.03 0.05 0.05 97 1023.5
20190421151715 13 303 1.6 3.2 0.03 0.05 0.05 97 1023.5
20190421151217 13 310 3.2 4.8 0.03 0.05 0.05 97 1023.6
20190421150715 13 326 1.6 4.8 0.03 0.05 0.05 97 1023.6
20190421150215 13 327 1.6 3.2 0.03 0.05 0.05 97 1023.6
20190421145717 13 307 1.6 4.8 0.00 0.05 0.03 97 1023.6
20190421145215 13 297 1.6 4.8 0.00 0.05 0.03 97 1023.6
20190421144715 13 302 1.6 4.8 0.00 0.05 0.03 97 1023.5
20190421144215 13 312 1.6 3.2 0.00 0.05 0.03 97 1023.6
20190421143714 13 313 1.6 4.8 0.00 0.05 0.03 97 1023.5
20190421143215 13 298 1.6 4.8 0.00 0.05 0.03 97 1023.6
20190421142718 13 305 1.6 4.8 0.00 0.05 0.03 97 1023.6
20190421142215 13 322 0.0 1.6 0.00 0.05 0.03 97 1023.6
20190421141715 13 312 1.6 4.8 0.00 0.05 0.03 97 1023.7
20190421141215 13 315 1.6 3.2 0.00 0.05 0.03 97 1023.7
20190421140715 13 323 1.6 4.8 0.00 0.05 0.03 97 1023.8
20190421140215 13 291 1.6 4.8 0.00 0.05 0.03 97 1023.7
20190421135717 13 319 0.0 3.2 0.00 0.05 0.03 97 1023.8
20190421135215 13 325 0.0 1.6 0.00 0.05 0.03 97 1023.8
20190421134715 14 310 0.0 0.0 0.00 0.05 0.03 97 1023.8
20190421134218 14 308 0.0 3.2 0.00 0.05 0.03 97 1023.8
20190421133715 14 331 0.0 1.6 0.00 0.05 0.03 97 1023.9
20190421133215 14 306 1.6 3.2 0.00 0.05 0.03 97 1024.0
20190421132717 14 299 0.0 1.6 0.00 0.05 0.03 97 1023.9
20190421132215 14 347 0.0 1.6 0.00 0.05 0.03 97 1023.8
20190421131715 14 22 0.0 3.2 0.00 0.05 0.03 97 1023.9
20190421131218 14 25 0.0 0.0 0.00 0.05 0.03 97 1023.9
20190421130715 14 25 0.0 0.0 0.00 0.05 0.03 97 1023.9
20190421130214 14 25 0.0 0.0 0.00 0.05 0.03 97 1023.8
20190421125714 14 25 0.0 0.0 0.00 0.05 0.03 97 1023.9
20190421125215 14 25 0.0 3.2 0.00 0.05 0.03 97 1024.0
20190421124714 14 44 0.0 1.6 0.00 0.05 0.03 97 1023.9
20190421124218 14 29 1.6 4.8 0.00 0.05 0.03 97 1023.9
20190421123715 14 35 1.6 3.2 0.00 0.05 0.03 97 1023.9
20190421123215 14 35 1.6 3.2 0.00 0.05 0.03 97 1023.9
20190421122717 14 46 0.0 3.2 0.00 0.05 0.03 97 1024.0
20190421122215 14 51 1.6 4.8 0.00 0.05 0.03 97 1024.0
20190421121715 14 10 1.6 3.2 0.00 0.05 0.03 97 1024.0
20190421121218 15 27 1.6 4.8 0.00 0.05 0.03 97 1023.9
20190421120715 15 30 3.2 4.8 0.00 0.05 0.03 97 1023.9
20190421120215 15 26 1.6 4.8 0.00 0.05 0.03 97 1024.0
20190421115714 15 33 3.2 4.8 0.00 0.05 0.03 97 1024.1
20190421115214 15 16 3.2 8.0 0.00 0.05 0.03 97 1024.1
20190421114714 15 24 3.2 4.8 0.00 0.05 0.03 97 1024.2
20190421114215 15 35 1.6 4.8 0.00 0.05 0.03 97 1024.2
20190421113715 15 34 3.2 4.8 0.00 0.05 0.03 96 1024.3
20190421113214 15 24 1.6 4.8 0.00 0.05 0.03 97 1024.3
20190421112714 15 37 3.2 8.0 0.00 0.05 0.03 97 1024.2
20190421112214 15 34 3.2 4.8 0.00 0.05 0.03 97 1024.2
20190421111714 15 32 3.2 4.8 0.00 0.05 0.03 97 1024.2
20190421111215 15 36 0.0 4.8 0.00 0.05 0.03 97 1024.2
20190421110714 15 31 3.2 8.0 0.00 0.05 0.03 97 1024.2
20190421110215 15 30 3.2 4.8 0.00 0.05 0.03 96 1024.3
20190421105715 15 24 4.8 9.7 0.00 0.05 0.03 96 1024.2
20190421105214 15 39 3.2 4.8 0.00 0.05 0.03 96 1024.2
20190421104715 15 30 1.6 4.8 0.00 0.05 0.03 96 1024.1
20190421104215 15 31 1.6 4.8 0.00 0.05 0.03 96 1024.1
20190421103715 15 32 1.6 8.0 0.00 0.05 0.03 96 1024.1
20190421103215 15 350 3.2 9.7 0.00 0.05 0.03 96 1024.1
20190421102715 15 31 1.6 4.8 0.00 0.05 0.03 96 1024.1
20190421102217 15 28 3.2 9.7 0.00 0.05 0.03 96 1024.2
20190421101716 15 14 1.6 8.0 0.00 0.05 0.03 96 1024.2
20190421101215 15 47 3.2 4.8 0.00 0.05 0.03 96 1024.1
20190421100714 15 23 6.4 11.3 0.00 0.05 0.03 96 1024.1
20190421100215 15 7 4.8 11.3 0.00 0.05 0.03 96 1024.0
20190421095714 15 6 4.8 9.7 0.00 0.05 0.03 96 1024.1
20190421095215 15 23 3.2 8.0 0.00 0.05 0.03 96 1024.1
20190421094715 15 39 4.8 11.3 0.00 0.05 0.03 96 1024.1
20190421094218 15 25 3.2 11.3 0.00 0.05 0.03 96 1024.1
20190421093715 15 17 3.2 9.7 0.00 0.05 0.03 96 1024.1
20190421093214 15 16 4.8 11.3 0.00 0.05 0.03 96 1024.1
20190421092718 15 24 1.6 8.0 0.00 0.05 0.03 96 1024.2
20190421092215 15 17 0.0 4.8 0.00 0.05 0.03 96 1024.2
20190421091218 15 343 1.6 4.8 0.00 0.05 0.03 96 1024.1
20190421090715 15 16 1.6 4.8 0.00 0.05 0.03 96 1024.0
20190421090215 15 8 3.2 4.8 0.00 0.05 0.03 96 1024.0
20190421085718 15 349 3.2 4.8 0.00 0.05 0.03 96 1023.9
20190421085214 15 31 1.6 8.0 0.00 0.05 0.03 96 1023.9
20190421084717 15 1 3.2 4.8 0.00 0.05 0.03 95 1024.0
20190421084214 15 22 1.6 4.8 0.00 0.05 0.03 95 1023.9
20190421083714 15 29 3.2 4.8 0.00 0.05 0.03 95 1023.9
20190421083215 15 19 1.6 4.8 0.00 0.05 0.03 95 1023.9
20190421082718 15 12 3.2 8.0 0.00 0.05 0.03 95 1023.9
20190421082214 15 9 3.2 4.8 0.00 0.05 0.03 95 1024.0
20190421081715 15 17 3.2 4.8 0.00 0.05 0.03 95 1024.0
20190421081218 15 26 3.2 4.8 0.03 0.05 0.03 95 1024.0
20190421080714 15 25 1.6 3.2 0.03 0.05 0.03 94 1023.9
20190421080214 15 46 1.6 4.8 0.03 0.05 0.03 94 1023.9
20190421075718 15 12 0.0 4.8 0.03 0.05 0.03 94 1023.9
20190421075214 16 16 3.2 4.8 0.03 0.05 0.03 94 1023.8
20190421074714 16 352 1.6 4.8 0.03 0.05 0.03 94 1023.8
20190421074220 16 347 0.0 4.8 0.03 0.05 0.03 93 1023.7
20190421073714 16 15 0.0 4.8 0.03 0.05 0.03 93 1023.6
20190421073214 16 338 1.6 4.8 0.03 0.05 0.03 93 1023.5
20190421072718 16 17 1.6 3.2 0.03 0.05 0.03 93 1023.6
20190421071715 16 21 1.6 4.8 0.03 0.05 0.03 92 1023.8
20190421071218 16 86 0.0 3.2 0.00 0.03 0.00 92 1023.7
20190421070715 16 48 0.0 1.6 0.00 0.03 0.00 91 1023.7
20190421070216 17 50 0.0 1.6 0.00 0.03 0.00 91 1023.8
20190421065714 17 62 1.6 3.2 0.00 0.03 0.00 91 1023.9
20190421065214 17 34 0.0 3.2 0.00 0.03 0.00 91 1024.0
20190421064716 17 35 3.2 4.8 0.00 0.03 0.00 90 1024.0
20190421064218 17 44 0.0 3.2 0.00 0.03 0.00 90 1023.9
20190421063714 17 20 1.6 4.8 0.00 0.03 0.00 90 1023.8
20190421063216 17 41 1.6 8.0 0.00 0.03 0.00 90 1023.8
20190421062715 17 29 3.2 4.8 0.00 0.03 0.00 89 1023.7
20190421062214 17 21 3.2 4.8 0.00 0.03 0.00 89 1023.8
20190421061714 17 341 3.2 4.8 0.00 0.03 0.00 88 1023.7
20190421061218 17 16 1.6 8.0 0.00 0.03 0.00 88 1023.7
20190421060714 17 74 1.6 4.8 0.00 0.03 0.00 87 1023.6
20190421060215 17 26 3.2 4.8 0.00 0.03 0.00 87 1023.5
20190421055717 17 357 3.2 9.7 0.00 0.03 0.00 87 1023.4
20190421055214 18 40 3.2 8.0 0.00 0.03 0.00 86 1023.4
20190421054714 18 29 3.2 4.8 0.00 0.03 0.00 85 1023.5
20190421054216 18 35 1.6 4.8 0.00 0.03 0.00 86 1023.4
20190421053715 18 359 1.6 4.8 0.00 0.03 0.00 85 1023.5
20190421053215 18 19 1.6 4.8 0.00 0.03 0.00 84 1023.5
20190421052716 18 50 3.2 8.0 0.00 0.03 0.00 84 1023.5
20190421052215 18 12 4.8 9.7 0.00 0.03 0.00 84 1023.5
20190421051714 18 44 3.2 8.0 0.00 0.03 0.00 84 1023.5
20190421051217 19 82 4.8 9.7 0.00 0.03 0.00 82 1023.3
20190421050715 19 58 3.2 9.7 0.00 0.03 0.00 81 1023.3
20190421050214 19 43 3.2 11.3 0.00 0.03 0.00 82 1023.3
20190421045717 19 28 3.2 9.7 0.00 0.03 0.00 81 1023.3
20190421045214 19 75 3.2 8.0 0.00 0.03 0.00 81 1023.5
20190421044714 19 26 3.2 4.8 0.00 0.03 0.00 82 1023.6
20190421044217 19 34 3.2 4.8 0.00 0.03 0.00 82 1023.6
20190421043714 19 32 4.8 9.7 0.00 0.03 0.00 81 1023.6
20190421043214 19 15 3.2 9.7 0.00 0.03 0.00 82 1023.5
20190421042717 19 11 4.8 11.3 0.00 0.03 0.00 80 1023.5
20190421042214 20 51 4.8 11.3 0.00 0.03 0.00 79 1023.5
20190421041714 20 45 4.8 14.5 0.00 0.03 0.00 78 1023.6
20190421041216 20 29 4.8 11.3 0.00 0.03 0.00 78 1023.5
20190421040714 20 26 4.8 12.9 0.00 0.03 0.00 77 1023.7
20190421040217 20 37 3.2 8.0 0.00 0.03 0.00 75 1023.5
20190421035716 20 43 3.2 4.8 0.00 0.03 0.00 75 1023.6
20190421035214 20 8 4.8 9.7 0.00 0.03 0.00 76 1023.7
20190421034714 21 86 3.2 11.3 0.00 0.03 0.00 73 1023.8
20190421034217 21 43 3.2 9.7 0.00 0.03 0.00 75 1023.8
20190421033713 21 35 3.2 9.7 0.00 0.03 0.00 74 1023.8
20190421033214 21 11 3.2 11.3 0.00 0.03 0.00 73 1023.8
20190421032716 21 25 6.4 12.9 0.00 0.03 0.00 73 1023.9
20190421032213 21 14 4.8 11.3 0.00 0.03 0.00 74 1024.0
20190421031714 21 201 3.2 9.7 0.00 0.03 0.00 74 1024.0
20190421031216 21 32 4.8 11.3 0.00 0.03 0.00 74 1024.1
20190421030714 21 7 4.8 8.0 0.00 0.03 0.00 74 1024.2
20190421030214 21 13 4.8 14.5 0.00 0.03 0.00 74 1024.2
20190421025716 21 28 3.2 12.9 0.00 0.03 0.00 76 1024.2
20190421025213 20 21 6.4 12.9 0.00 0.03 0.00 76 1024.3
20190421024714 21 19 4.8 8.0 0.00 0.03 0.00 74 1024.2
20190421024216 21 87 3.2 8.0 0.00 0.03 0.00 75 1024.2
20190421023714 21 58 3.2 8.0 0.00 0.03 0.00 73 1024.4
20190421023214 21 52 3.2 9.7 0.00 0.03 0.00 75 1024.4
20190421022717 21 51 3.2 8.0 0.00 0.03 0.00 75 1024.5
20190421022213 21 29 3.2 9.7 0.00 0.03 0.00 76 1024.5
20190421021714 20 10 4.8 9.7 0.00 0.03 0.00 75 1024.7
20190421021217 21 71 4.8 11.3 0.00 0.03 0.00 75 1024.7
20190421020714 21 67 4.8 11.3 0.00 0.03 0.00 75 1024.8
20190421020214 21 4 4.8 11.3 0.00 0.03 0.00 75 1025.0
20190421015716 21 15 3.2 9.7 0.00 0.03 0.00 75 1025.1
20190421015214 21 87 3.2 8.0 0.00 0.03 0.00 75 1025.1
20190421014713 21 359 4.8 4.8 0.00 0.03 0.00 76 1025.2
20190421014217 21 65 3.2 8.0 0.00 0.03 0.00 74 1025.3
20190421013714 21 49 4.8 8.0 0.00 0.03 0.00 75 1025.2
20190421013214 20 4 4.8 11.3 0.00 0.03 0.00 75 1025.4
20190421012717 20 31 3.2 8.0 0.00 0.03 0.00 75 1025.5
20190421012213 21 27 3.2 9.7 0.00 0.03 0.00 77 1025.6
20190421011714 21 13 3.2 8.0 0.00 0.03 0.00 74 1025.6
20190421011216 21 70 3.2 4.8 0.00 0.03 0.00 73 1025.6
20190421010713 20 26 3.2 9.7 0.00 0.03 0.00 74 1025.8
20190421010214 21 25 3.2 9.7 0.00 0.03 0.00 74 1025.8
20190421005714 20 29 4.8 9.7 0.00 0.03 0.00 73 1025.9
20190421005213 21 73 4.8 9.7 0.00 0.03 0.00 72 1026.1
20190421004714 21 41 3.2 4.8 0.00 0.03 0.00 75 1026.2
20190421004216 20 336 3.2 4.8 0.00 0.03 0.00 76 1026.1
20190421003714 20 358 4.8 9.7 0.00 0.03 0.00 73 1026.2
20190421003214 20 2 1.6 4.8 0.00 0.03 0.00 77 1026.0
20190421002716 20 175 3.2 4.8 0.00 0.03 0.00 76 1026.0
20190421002214 20 51 1.6 9.7 0.00 0.03 0.00 76 1026.0
20190421001714 20 47 3.2 4.8 0.00 0.03 0.00 75 1026.0
20190421001216 20 285 3.2 9.7 0.00 0.03 0.00 72 1026.1
20190421000714 20 36 3.2 9.7 0.00 0.03 0.00 76 1026.1
20190421000214 19 45 4.8 9.7 0.00 0.03 0.00 77 1026.1
20190420235714 19 21 1.6 4.8 0.00 0.03 0.00 78 1026.2
20190420235214 19 315 1.6 4.8 0.00 0.03 0.00 78 1026.2
20190420234714 18 44 1.6 8.0 0.00 0.03 0.00 78 1026.2
20190420234214 18 35 1.6 9.7 0.00 0.03 0.00 78 1026.2
20190420233714 18 32 1.6 11.3 0.00 0.03 0.00 80 1026.1
20190420233213 18 35 4.8 8.0 0.00 0.03 0.00 78 1026.2
20190420232714 18 67 3.2 11.3 0.00 0.03 0.00 80 1026.1
20190420232213 18 81 3.2 8.0 0.00 0.03 0.00 78 1026.0
20190420231714 18 8 3.2 11.3 0.00 0.03 0.00 79 1025.9
20190420231213 17 45 4.8 14.5 0.00 0.03 0.00 78 1025.9
20190420230714 18 39 4.8 9.7 0.00 0.03 0.00 78 1026.0
20190420230214 17 8 3.2 14.5 0.00 0.03 0.00 80 1026.1
20190420225714 17 19 3.2 11.3 0.00 0.03 0.03 81 1026.2
20190420225213 17 36 4.8 9.7 0.00 0.03 0.03 79 1026.1
20190420224714 17 25 3.2 11.3 0.00 0.03 0.03 80 1026.2
20190420224214 17 24 3.2 4.8 0.03 0.03 0.03 81 1026.3
20190420223714 17 15 3.2 9.7 0.03 0.03 0.03 82 1026.3
20190420223214 17 19 3.2 8.0 0.03 0.03 0.03 82 1026.3
20190420222713 16 30 1.6 9.7 0.03 0.03 0.03 84 1026.4
20190420222214 16 20 3.2 8.0 0.03 0.03 0.03 85 1026.4
20190420221714 16 37 3.2 9.7 0.03 0.03 0.03 85 1026.4
20190420221214 16 20 4.8 8.0 0.03 0.03 0.03 87 1026.4
20190420220713 16 29 3.2 4.8 0.03 0.03 0.03 88 1026.4
20190420220213 15 35 1.6 4.8 0.03 0.03 0.03 89 1026.4
20190420215717 15 27 3.2 4.8 0.03 0.03 0.03 90 1026.3
20190420202213 12 33 1.6 4.8 0.00 0.00 0.00 97 1025.5
20190420201716 12 46 1.6 3.2 0.00 0.00 0.00 97 1025.3
20190420201213 12 34 1.6 4.8 0.00 0.00 0.00 97 1025.3
20190420200714 12 34 1.6 3.2 0.00 0.03 0.00 97 1025.3